Theta_e
324 329 337 346 350 351 350 350 350 349 353 353 353 353 352 353 353 353 353 353 354 355 353 352 354 354 353 351 352 352 351 350 349 349 349 348 347 347 345 343 341 336 339
325 329 335 343 348 351 351 349 350 350 352 351 351 351 351 351 352 352 352 353 353 355 352 351 351 352 351 350 351 350 349 349 348 347 347 347 345 345 343 341 340 337 341
323 327 330 339 342 349 350 350 350 351 350 347 350 349 350 351 350 350 352 353 353 354 352 351 350 350 350 350 349 349 349 348 346 346 345 339 338 342 341 341 339 338 338
321 324 326 338 339 343 347 348 346 347 349 349 348 348 350 351 350 350 349 349 350 352 352 351 349 349 349 349 348 347 347 346 344 343 338 337 336 340 339 339 338 338 334
318 320 327 336 337 338 341 343 345 345 345 348 348 349 350 349 349 347 346 345 350 351 349 349 348 348 348 347 346 345 344 343 342 338 335 336 336 338 339 338 336 335 335
316 318 321 330 334 337 337 339 341 346 342 342 347 348 348 347 348 347 346 346 346 348 345 347 348 347 346 345 344 344 343 341 336 332 333 336 333 339 337 335 333 332 335
312 315 317 322 327 331 334 336 337 340 343 342 342 346 347 347 347 346 345 346 347 346 345 347 347 346 345 343 343 341 340 339 332 331 331 331 334 337 335 334 333 335 336
310 312 315 318 320 324 328 332 333 336 340 343 341 345 347 346 346 344 345 346 347 344 344 345 344 344 343 342 341 340 339 338 334 330 329 330 338 337 336 333 332 334 334
309 310 309 310 312 317 322 326 328 332 335 339 342 341 345 345 345 344 343 345 346 344 344 343 342 343 342 342 338 339 338 338 333 333 332 331 340 338 335 331 332 333 332
305 306 306 307 308 309 313 320 323 327 332 336 338 341 341 344 344 342 341 343 344 342 342 343 341 340 341 338 338 338 337 337 333 330 330 333 339 336 335 331 334 332 332
302 303 305 306 306 307 310 313 318 322 329 331 333 335 338 337 339 342 341 341 342 342 342 341 341 340 339 337 337 337 336 333 329 329 330 338 337 336 334 329 332 330 328
299 301 303 304 305 305 306 308 311 316 319 326 326 326 330 337 335 340 341 340 341 339 341 340 340 338 337 330 331 337 332 332 330 329 330 336 336 335 333 329 332 329 332
297 299 302 303 305 305 304 306 308 309 313 320 323 325 325 335 334 334 338 338 337 339 339 338 337 336 330 326 324 323 330 330 331 332 332 335 336 333 332 329 331 330 329
294 296 299 302 303 305 304 303 305 306 309 311 317 320 319 324 335 334 332 333 335 337 336 337 334 331 328 326 324 325 329 330 330 331 331 333 334 332 331 329 328 332 328
293 294 296 300 300 303 305 304 303 304 306 309 315 316 317 319 324 335 335 335 334 334 336 336 334 330 327 326 324 324 324 326 328 329 327 331 332 332 329 330 331 332 328
293 293 295 297 298 301 301 303 302 303 305 307 311 312 314 315 318 323 335 334 335 336 335 337 334 330 326 327 325 322 323 325 326 326 327 327 329 330 328 331 332 331 328
290 292 293 296 297 297 299 300 301 302 303 305 307 309 311 312 314 316 332 335 335 336 335 335 333 332 327 327 325 322 322 325 325 325 325 323 325 327 327 330 331 329 329
288 290 292 295 295 296 297 299 300 300 301 303 304 307 308 309 312 314 323 334 336 335 336 335 333 331 328 327 323 321 320 322 323 324 323 322 320 321 325 328 329 331 331
287 289 290 291 292 294 296 297 299 299 300 301 303 305 306 307 310 313 318 329 335 335 335 334 333 332 327 326 323 320 319 319 321 323 320 319 319 320 320 326 326 327 329
285 287 288 290 290 293 295 295 297 298 298 300 300 302 305 306 307 311 313 317 333 332 333 332 330 331 328 326 325 320 318 317 319 320 319 319 318 319 319 320 324 324 326
285 286 287 288 289 291 292 292 293 295 296 298 299 301 302 305 305 307 310 313 317 328 331 331 329 328 327 327 323 320 319 317 316 318 318 318 316 318 318 317 317 321 323
283 285 286 287 288 290 292 292 292 294 295 297 298 299 301 302 305 305 306 310 312 316 330 330 328 326 326 327 322 319 313 316 318 316 316 317 313 316 317 317 314 314 317
282 283 285 286 287 289 291 292 293 294 295 295 296 297 298 300 302 303 303 307 310 313 321 329 329 327 324 326 325 321 315 313 315 316 315 316 313 313 315 316 315 314 314
281 283 285 286 286 290 291 290 289 290 290 294 294 296 297 299 300 301 301 303 306 311 312 320 330 328 326 323 324 323 322 319 316 312 316 315 315 314 314 314 316 315 314
280 282 283 285 286 288 289 289 289 290 292 294 295 294 295 297 298 299 300 301 303 307 309 311 320 327 328 324 325 321 319 319 319 316 313 312 313 316 316 315 315 316 315
281 281 283 284 286 287 289 289 288 288 290 291 293 293 294 296 296 298 299 300 301 304 308 310 313 323 327 326 325 324 321 319 318 316 314 315 313 314 317 317 315 316 316
Wind_Speed
14 20 28 26 8 7 10 9 8 7 7 6 8 12 17 17 17 17 17 18 16 17 18 17 18 17 19 20 20 19 19 19 19 18 19 21 22 22 21 20 19 13 17
15 17 25 26 15 8 8 8 5 4 6 4 7 11 14 15 16 16 16 16 17 17 18 17 17 18 20 21 19 19 18 17 18 19 20 21 21 20 20 20 19 14 17
16 15 18 25 26 21 10 10 4 7 6 2 7 10 12 15 15 15 14 14 15 16 18 16 17 18 19 18 18 18 17 18 18 18 18 10 11 18 18 18 18 16 18
13 13 16 24 25 27 20 14 7 4 3 3 6 10 13 15 14 15 14 14 16 17 16 15 16 18 19 17 18 19 19 19 18 16 9 9 10 16 16 16 17 16 15
14 13 16 24 24 24 24 24 17 8 5 2 5 8 11 13 13 13 12 9 12 17 17 14 15 17 15 16 17 18 18 16 14 11 9 9 7 13 16 16 15 14 13
13 14 19 27 27 25 24 25 23 14 7 1 5 8 11 11 10 9 9 12 10 14 17 13 15 14 13 15 16 15 15 13 12 7 8 10 6 15 15 14 14 14 12
15 15 17 28 28 28 26 25 24 22 10 5 5 8 9 10 10 8 7 9 13 15 16 14 14 13 15 15 15 16 15 13 7 7 6 6 9 15 15 15 14 14 15
15 16 17 25 28 25 25 25 24 23 18 10 6 7 8 8 8 6 7 8 11 15 12 16 14 13 16 16 16 16 15 14 8 6 6 5 15 15 16 14 14 13 16
15 16 16 16 21 24 23 24 23 22 21 15 8 6 7 8 9 7 9 12 12 12 14 13 16 13 14 13 12 13 13 12 7 6 7 4 15 18 15 14 14 15 16
18 18 17 16 16 15 12 23 25 23 21 19 16 11 7 9 9 5 10 11 9 9 10 14 15 13 13 12 10 14 13 12 6 5 4 4 14 16 17 13 15 17 15
16 19 18 17 17 16 14 17 21 25 23 20 19 20 7 3 5 9 7 10 9 8 11 14 11 11 11 12 12 15 11 4 5 3 3 12 14 16 17 14 13 17 13
17 17 16 16 16 17 14 15 13 14 12 11 12 13 9 4 4 7 7 11 10 7 11 10 15 11 9 4 4 12 4 7 5 4 3 11 13 15 16 15 14 16 13
11 13 16 16 15 16 14 11 8 8 9 9 12 11 11 6 3 3 3 3 4 7 3 6 7 6 6 4 4 4 6 6 5 4 5 10 13 15 15 16 15 16 13
11 12 15 16 15 14 10 9 10 9 9 9 11 13 10 7 3 3 2 3 3 3 3 4 5 5 7 6 6 5 7 6 5 3 5 10 12 14 15 15 15 17 15
11 12 12 14 14 13 12 10 10 10 9 10 10 11 10 9 8 3 3 5 5 3 4 3 4 6 7 5 5 6 6 6 8 5 3 10 10 13 15 16 14 17 15
9 11 10 12 12 12 12 12 10 9 10 9 8 10 12 10 8 8 6 7 5 5 3 3 3 6 6 5 5 6 6 7 8 6 4 5 10 11 13 15 16 15 15
6 7 11 13 11 11 12 11 9 9 10 9 9 12 12 11 11 10 6 6 6 4 5 4 4 3 5 4 6 6 6 8 8 7 5 4 6 9 11 13 12 15 16
7 8 8 9 10 10 10 9 8 9 8 9 9 9 13 13 13 10 7 4 6 7 7 6 6 5 5 6 4 5 4 5 8 7 5 5 4 4 7 12 13 13 15
8 8 9 8 10 9 8 8 8 10 9 8 9 8 13 13 14 11 7 6 5 5 8 6 6 8 5 5 6 5 5 5 7 6 6 6 6 5 3 10 11 12 14
7 8 7 7 9 8 7 6 7 7 6 7 9 10 12 10 15 11 9 9 3 4 8 5 3 8 6 5 7 5 4 4 5 6 7 6 5 6 5 6 7 6 11
7 8 8 9 10 7 8 9 8 8 8 8 8 14 13 12 13 13 9 9 9 7 5 6 3 8 6 5 6 4 4 3 3 4 6 6 6 6 5 5 4 4 6
5 7 8 8 8 7 7 7 4 6 5 6 6 10 12 13 12 12 12 10 10 8 4 8 5 5 3 7 3 5 4 2 1 3 3 5 6 5 5 6 6 6 5
4 5 6 7 7 6 7 6 7 5 6 6 9 9 11 12 13 12 13 10 10 9 6 5 7 7 5 5 5 3 4 4 6 3 5 5 5 4 5 5 6 6 6
4 5 6 7 6 6 7 7 7 7 7 7 6 8 8 12 12 13 14 12 12 8 10 6 5 6 6 7 3 4 1 3 4 3 2 5 4 7 6 5 6 7 7
3 5 5 7 7 6 7 6 5 7 6 7 7 8 9 9 12 12 12 12 11 9 9 10 6 7 6 7 7 4 2 2 3 3 3 3 3 7 7 8 7 7 9
4 5 5 6 6 7 6 7 7 7 9 8 10 8 8 8 9 11 12 11 11 10 10 9 9 5 7 5 6 8 6 5 5 4 2 4 6 5 8 7 8 8 8
Wind_Direction
330 326 333 347 334 69 57 33 21 48 38 44 75 121 128 133 133 130 131 127 114 110 108 106 107 108 110 115 109 105 105 107 108 107 106 106 104 98 97 94 92 92 96
325 334 335 359 352 26 50 51 44 31 72 73 92 103 120 123 126 130 132 121 117 115 113 112 112 115 118 117 112 111 111 110 109 104 108 105 102 101 102 99 95 98 95
344 334 330 11 14 4 18 31 17 41 58 105 121 111 116 121 126 125 116 115 116 115 117 118 121 124 123 118 115 113 109 110 107 103 99 94 99 101 96 95 98 102 96
349 349 344 10 17 20 17 19 22 28 56 105 133 133 123 119 119 118 116 125 128 117 118 123 130 130 127 121 115 112 109 107 103 100 98 99 100 101 103 97 101 100 104
4 8 359 10 17 25 18 23 6 354 354 96 135 135 125 124 120 114 109 97 113 118 112 116 132 133 126 121 118 116 114 111 106 99 93 94 98 107 107 106 107 103 106
12 12 11 14 10 22 16 15 9 1 340 305 141 144 140 138 135 132 128 134 139 128 121 136 137 130 122 124 123 116 110 106 98 90 101 105 98 115 113 111 114 114 115
21 17 17 18 16 12 7 14 6 5 354 317 207 159 166 157 147 139 144 157 147 131 129 136 137 128 132 116 121 113 106 103 100 104 107 120 111 116 117 117 118 115 113
24 22 17 13 14 13 11 11 1 1 360 358 272 184 177 164 158 145 153 148 136 136 158 143 137 137 134 120 126 125 124 124 115 109 111 111 129 122 120 120 125 120 103
31 29 17 12 8 5 10 8 358 358 353 3 353 267 197 175 177 172 175 146 156 163 152 135 143 143 142 136 124 134 134 122 124 124 121 126 131 126 123 127 129 126 118
29 27 20 11 13 4 359 359 5 355 352 3 7 355 275 179 161 203 184 161 160 158 139 139 149 146 142 122 116 138 129 117 117 110 101 132 135 131 130 133 124 119 120
23 19 16 13 11 7 6 358 358 355 351 1 3 353 322 235 197 197 177 177 165 184 160 138 137 141 142 122 127 125 125 114 116 111 118 146 143 138 134 136 128 126 139
19 19 17 13 10 11 7 2 358 353 347 346 1 352 337 291 239 186 186 172 179 198 167 159 156 150 134 127 137 142 132 137 126 130 136 153 149 142 141 143 135 134 130
11 17 16 14 15 15 7 3 354 349 351 346 353 351 338 312 243 241 180 178 163 210 156 165 150 153 131 140 147 137 138 135 138 146 159 163 152 149 144 147 144 139 140
15 11 10 16 14 15 10 5 354 354 352 350 336 359 342 333 262 232 218 187 169 165 193 180 148 138 138 147 156 138 148 145 143 137 162 163 154 155 154 154 157 153 149
21 12 9 15 13 8 11 359 357 354 344 346 343 350 340 331 331 191 202 198 207 186 187 171 171 147 144 153 152 141 139 146 141 138 140 157 155 157 160 157 165 145 140
17 15 5 14 8 9 9 1 356 349 342 345 346 342 348 337 331 334 206 206 202 208 200 161 176 167 141 158 151 143 144 149 130 134 139 155 155 164 163 167 155 152 153
350 359 13 17 0 3 5 3 357 351 349 342 348 341 347 347 333 322 263 195 203 197 186 180 164 164 128 164 150 143 147 155 141 149 143 144 165 170 170 161 169 169 161
358 359 1 6 2 356 354 360 358 351 350 340 347 339 348 348 333 324 309 192 191 201 200 192 193 177 160 158 136 146 142 144 141 145 151 146 156 163 173 167 174 168 170
358 357 4 355 358 347 347 349 355 352 351 348 346 342 347 350 336 327 332 314 194 210 192 190 193 186 155 155 142 140 147 149 151 151 166 157 166 159 160 176 165 169 175
6 355 355 354 354 343 351 345 345 354 356 351 354 340 348 352 345 340 345 339 276 210 200 172 187 165 132 143 139 133 139 140 154 166 176 169 170 168 167 165 169 180 181
5 4 353 0 348 354 355 351 350 351 352 355 354 337 350 354 351 345 351 348 349 300 194 171 144 173 137 126 116 92 64 106 135 179 167 178 178 172 170 171 163 172 185
345 353 352 352 347 347 358 347 324 328 334 346 350 338 353 357 348 350 352 348 343 321 210 166 153 152 142 154 148 133 144 111 157 185 178 186 183 163 177 189 177 177 176
351 333 347 344 343 343 353 347 342 338 339 344 356 348 356 352 352 355 355 350 339 344 322 171 171 175 156 176 171 138 148 170 141 164 198 195 178 181 182 185 197 187 184
316 311 345 340 341 352 352 356 350 346 349 338 330 344 348 352 352 354 357 354 342 331 340 340 187 165 156 165 133 177 168 127 159 144 169 200 189 198 194 192 198 203 193
293 307 312 332 346 347 356 353 354 346 335 334 335 341 357 343 357 355 351 351 337 335 345 337 340 178 183 174 181 156 150 95 70 132 159 191 203 208 205 201 197 204 205
339 335 324 334 331 351 355 344 346 340 336 344 344 343 347 353 353 355 348 351 335 332 339 337 324 296 186 179 173 182 179 164 180 150 133 168 208 214 204 201 203 204 207